contact:dominique.lefevre@mio.osupytheas.fr, maurice.libes@osupytheas.fr, didier.mallarino@osupytheas.fr
Project:EMSO http://www.emso-fr.org/EMSO-France
Depth: 2436.0 m
Title:EMSO Ligure Ouest : Data MII capteur AQUADOPP
Date,Latitude,Longitude,X_East,Y_North,Z_Up,Amplitude_X,Amplitude_Y,Amplitude_Z,Batterie,SoundSpeed,Heading,Pitch,Roll,Pressure,TIS,Speed,Direction
, degrees North, degrees East, m.s-1, m.s-1,m.s-1, 1, 1, 1, Volt, m.s-1, degree, degree, degree, dbar, degree_C, m.s-1, degree
2021-05-04T00:04:03,42.805,6.029,0.022,-0.008,0.014,102.0,103.0,101.0,13.3,1505.2,326.3,-0.7,1.8,2470.572,13.28,0.023,110.0
2021-05-04T00:07:03,42.805,6.029,0.015,-0.034,-0.004,102.0,102.0,101.0,13.3,1505.2,328.9,-0.8,1.8,2470.599,13.28,0.037,156.2
2021-05-04T00:10:03,42.805,6.029,0.03,-0.049,-0.03,101.0,104.0,102.0,13.4,1505.2,326.5,-0.7,1.8,2470.599,13.28,0.057,148.5
2021-05-04T00:13:03,42.805,6.029,0.029,-0.019,0.027,102.0,103.0,102.0,13.4,1505.2,327.5,-0.7,1.8,2470.569,13.28,0.034,123.2
2021-05-04T00:16:03,42.805,6.029,0.016,-0.022,0.043,103.0,104.0,100.0,13.4,1505.2,325.9,-0.7,1.8,2470.571,13.28,0.027,144.0
2021-05-04T00:19:03,42.805,6.029,0.061,-0.04,0.023,100.0,106.0,101.0,13.3,1505.2,326.1,-0.7,1.8,2470.572,13.28,0.072,123.3
2021-05-04T00:22:03,42.805,6.029,0.036,-0.021,0.026,102.0,102.0,100.0,13.4,1505.2,327.4,-0.8,1.8,2470.607,13.28,0.041,120.3
2021-05-04T00:25:03,42.805,6.029,0.043,-0.039,0.016,101.0,104.0,100.0,13.4,1505.2,327.9,-0.8,1.8,2470.611,13.28,0.058,132.2
2021-05-04T00:28:03,42.805,6.029,0.037,-0.025,0.015,101.0,105.0,100.0,13.4,1505.2,327.4,-0.8,1.8,2470.587,13.28,0.044,124.0
2021-05-04T00:31:03,42.805,6.029,0.038,-0.026,0.02,101.0,101.0,102.0,13.4,1505.2,326.2,-0.7,1.8,2470.579,13.28,0.046,124.4
2021-05-04T00:34:03,42.805,6.029,0.05,-0.022,0.06,102.0,103.0,101.0,13.3,1505.2,328.1,-0.8,1.8,2470.605,13.28,0.054,113.7
2021-05-04T00:37:03,42.805,6.029,0.034,-0.034,-0.007,103.0,100.0,101.0,13.4,1505.2,325.7,-0.8,1.8,2470.564,13.28,0.048,135.0
2021-05-04T00:40:03,42.805,6.029,0.038,-0.033,0.018,101.0,102.0,101.0,13.4,1505.2,329.3,-0.7,1.8,2470.601,13.28,0.05,131.0
2021-05-04T00:43:03,42.805,6.029,0.023,-0.021,-0.014,102.0,103.0,101.0,13.4,1505.2,325.3,-0.8,1.8,2470.576,13.28,0.031,132.4
2021-05-04T00:46:03,42.805,6.029,-0.005,-0.015,0.016,101.0,102.0,101.0,13.3,1505.2,325.7,-0.7,1.8,2470.602,13.28,0.015,198.4
2021-05-04T00:49:03,42.805,6.029,0.024,-0.033,0.043,102.0,103.0,100.0,13.3,1505.2,327.6,-0.8,1.8,2470.606,13.28,0.04,144.0
2021-05-04T00:52:03,42.805,6.029,0.036,-0.041,0.006,103.0,103.0,101.0,13.4,1505.2,324.1,-0.7,1.8,2470.57,13.28,0.054,138.7
2021-05-04T00:55:03,42.805,6.029,0.007,-0.025,0.022,103.0,104.0,99.0,13.3,1505.2,327.5,-0.7,1.8,2470.603,13.28,0.025,164.4
2021-05-04T00:58:03,42.805,6.029,0.022,-0.015,0.024,102.0,102.0,100.0,13.4,1505.2,328.1,-0.8,1.8,2470.596,13.28,0.026,124.3
2021-05-04T01:04:03,42.805,6.029,0.03,-0.029,0.0,100.0,104.0,100.0,13.3,1505.2,327.2,-0.8,1.8,2470.628,13.28,0.041,134.0
2021-05-04T01:07:03,42.805,6.029,0.048,-0.025,0.002,101.0,103.0,102.0,13.3,1505.2,327.7,-0.8,1.8,2470.631,13.28,0.054,117.5
2021-05-04T01:10:03,42.805,6.029,0.033,-0.026,0.016,103.0,101.0,100.0,13.4,1505.2,326.4,-0.7,1.8,2470.582,13.28,0.042,128.2
2021-05-04T01:13:03,42.805,6.029,0.019,-0.022,-0.002,101.0,104.0,99.0,13.4,1505.2,325.9,-0.8,1.8,2470.604,13.28,0.029,139.2
2021-05-04T01:16:03,42.805,6.029,0.02,-0.052,0.016,102.0,102.0,100.0,13.4,1505.2,328.9,-0.8,1.8,2470.64,13.28,0.055,159.0
2021-05-04T01:19:03,42.805,6.029,0.039,-0.028,0.019,101.0,104.0,100.0,13.4,1505.2,327.0,-0.7,1.8,2470.605,13.28,0.048,125.7
2021-05-04T01:22:03,42.805,6.029,0.035,-0.031,0.006,101.0,102.0,101.0,13.4,1505.2,327.9,-0.7,1.8,2470.632,13.28,0.046,131.5
2021-05-04T01:25:03,42.805,6.029,0.024,-0.021,0.021,101.0,103.0,101.0,13.4,1505.2,324.1,-0.8,1.8,2470.591,13.28,0.031,131.2
2021-05-04T01:28:03,42.805,6.029,0.046,-0.014,-0.004,102.0,104.0,100.0,13.4,1505.2,327.2,-0.8,1.9,2470.625,13.28,0.048,106.9
2021-05-04T01:31:03,42.805,6.029,0.006,-0.042,-0.028,102.0,104.0,100.0,13.3,1505.2,327.2,-0.7,1.8,2470.628,13.28,0.042,171.9
2021-05-04T01:34:03,42.805,6.029,0.035,-0.007,0.03,102.0,105.0,100.0,13.4,1505.2,327.7,-0.8,1.8,2470.623,13.28,0.035,101.3
2021-05-04T01:37:03,42.805,6.029,0.064,-0.018,0.013,102.0,104.0,100.0,13.4,1505.2,325.8,-0.7,1.8,2470.604,13.28,0.066,105.7
2021-05-04T01:40:03,42.805,6.029,0.045,-0.008,0.039,103.0,103.0,100.0,13.4,1505.2,327.0,-0.7,1.8,2470.584,13.28,0.045,100.1
2021-05-04T01:43:03,42.805,6.029,0.029,-0.022,0.006,102.0,103.0,100.0,13.4,1505.2,325.6,-0.8,1.8,2470.602,13.28,0.036,127.2
2021-05-04T01:46:03,42.805,6.029,0.043,-0.012,0.023,101.0,104.0,101.0,13.4,1505.2,326.6,-0.7,1.8,2470.642,13.28,0.044,105.6
2021-05-04T01:49:03,42.805,6.029,0.086,-0.017,0.007,102.0,106.0,101.0,13.4,1505.2,326.1,-0.7,1.8,2470.624,13.28,0.087,101.2
2021-05-04T01:52:03,42.805,6.029,0.037,0.019,0.038,103.0,104.0,100.0,13.3,1505.2,325.4,-0.8,1.8,2470.64,13.28,0.041,62.8
2021-05-04T01:55:03,42.805,6.029,0.032,-0.034,0.003,103.0,106.0,100.0,13.4,1505.2,327.8,-0.7,1.8,2470.63,13.28,0.046,136.7
2021-05-04T01:58:03,42.805,6.029,0.044,-0.023,0.052,103.0,104.0,101.0,13.4,1505.2,329.1,-0.8,1.8,2470.63,13.28,0.049,117.6
2021-05-04T02:04:03,42.805,6.029,0.036,-0.024,0.021,102.0,104.0,101.0,13.4,1505.2,326.0,-0.7,1.8,2470.662,13.28,0.043,123.7
2021-05-04T02:07:03,42.805,6.029,0.048,-0.021,-0.01,102.0,102.0,101.0,13.4,1505.2,327.1,-0.8,1.8,2470.606,13.28,0.052,113.6
2021-05-04T02:10:03,42.805,6.029,0.049,-0.027,0.028,102.0,104.0,100.0,13.3,1505.2,326.7,-0.8,1.8,2470.62,13.28,0.055,118.9
2021-05-04T02:13:03,42.805,6.029,0.04,-0.003,0.019,103.0,105.0,101.0,13.4,1505.2,326.3,-0.8,1.9,2470.699,13.28,0.04,94.3
2021-05-04T02:16:03,42.805,6.029,0.01,-0.038,-0.011,103.0,104.0,101.0,13.3,1505.2,328.7,-0.8,1.8,2470.668,13.28,0.039,165.3
2021-05-04T02:19:03,42.805,6.029,0.024,-0.026,-0.015,102.0,103.0,100.0,13.4,1505.2,326.2,-0.8,1.8,2470.67,13.28,0.035,137.3
2021-05-04T02:22:03,42.805,6.029,0.054,-0.033,0.006,102.0,103.0,101.0,13.4,1505.2,328.2,-0.8,1.8,2470.602,13.28,0.063,121.4
2021-05-04T02:25:03,42.805,6.029,0.049,-0.02,0.028,102.0,104.0,101.0,13.4,1505.2,327.3,-0.7,1.8,2470.661,13.28,0.052,112.2
2021-05-04T02:28:03,42.805,6.029,0.025,-0.015,0.026,103.0,104.0,101.0,13.4,1505.2,327.2,-0.8,1.8,2470.652,13.28,0.029,121.0
2021-05-04T02:31:03,42.805,6.029,0.035,-0.033,-0.014,103.0,105.0,100.0,13.4,1505.2,324.7,-0.8,1.8,2470.633,13.28,0.048,133.3
2021-05-04T02:34:03,42.805,6.029,0.032,-0.005,-0.008,103.0,103.0,101.0,13.4,1505.2,326.4,-0.8,1.8,2470.649,13.28,0.032,98.9
2021-05-04T02:37:03,42.805,6.029,0.049,-0.003,0.022,102.0,103.0,101.0,13.4,1505.2,325.5,-0.7,1.8,2470.61,13.28,0.049,93.5
2021-05-04T02:40:03,42.805,6.029,0.022,-0.001,0.008,102.0,103.0,101.0,13.4,1505.2,326.5,-0.8,1.8,2470.613,13.28,0.022,92.6
2021-05-04T02:43:03,42.805,6.029,0.034,-0.011,-0.003,102.0,106.0,100.0,13.4,1505.2,327.7,-0.7,1.8,2470.661,13.28,0.035,107.9
2021-05-04T02:46:03,42.805,6.029,0.035,-0.018,0.0,102.0,104.0,100.0,13.3,1505.2,326.4,-0.7,1.8,2470.669,13.28,0.039,117.2
2021-05-04T02:49:03,42.805,6.029,0.011,-0.036,-0.043,103.0,104.0,101.0,13.4,1505.2,329.1,-0.7,1.8,2470.654,13.28,0.037,163.0
2021-05-04T02:52:03,42.805,6.029,0.037,-0.025,-0.002,102.0,103.0,100.0,13.4,1505.2,327.8,-0.8,1.8,2470.649,13.28,0.044,124.0
2021-05-04T02:55:03,42.805,6.029,0.042,-0.021,0.019,102.0,103.0,101.0,13.3,1505.2,324.6,-0.7,1.8,2470.616,13.28,0.046,116.6
2021-05-04T02:58:03,42.805,6.029,0.051,-0.039,-0.007,102.0,104.0,100.0,13.4,1505.2,324.5,-0.8,1.8,2470.647,13.28,0.064,127.4
2021-05-04T03:04:03,42.805,6.029,0.043,-0.028,-0.007,102.0,104.0,100.0,13.4,1505.2,327.4,-0.7,1.8,2470.664,13.28,0.051,123.1
2021-05-04T03:07:03,42.805,6.029,0.076,-0.025,0.047,102.0,105.0,100.0,13.3,1505.2,325.7,-0.8,1.8,2470.622,13.28,0.08,108.2
2021-05-04T03:10:03,42.805,6.029,0.053,-0.007,0.027,103.0,102.0,101.0,13.4,1505.2,327.3,-0.7,1.8,2470.638,13.28,0.053,97.5
2021-05-04T03:13:03,42.805,6.029,0.048,-0.023,0.032,101.0,104.0,101.0,13.4,1505.2,327.8,-0.8,1.9,2470.63,13.28,0.053,115.6
2021-05-04T03:16:03,42.805,6.029,0.067,-0.022,0.047,102.0,103.0,100.0,13.4,1505.2,327.5,-0.8,1.8,2470.647,13.28,0.07,108.2
2021-05-04T03:19:03,42.805,6.029,0.032,-0.021,0.007,103.0,103.0,100.0,13.4,1505.2,326.0,-0.7,1.8,2470.676,13.28,0.038,123.3
2021-05-04T03:22:03,42.805,6.029,0.054,-0.024,0.0,102.0,106.0,100.0,13.4,1505.2,324.9,-0.8,1.8,2470.694,13.28,0.059,114.0
2021-05-04T03:25:03,42.805,6.029,0.04,-0.032,0.014,102.0,103.0,101.0,13.4,1505.2,326.2,-0.7,1.9,2470.605,13.28,0.051,128.7
2021-05-04T03:28:03,42.805,6.029,0.071,-0.023,0.056,101.0,103.0,102.0,13.4,1505.2,326.4,-0.7,1.8,2470.656,13.28,0.074,107.9
2021-05-04T03:31:03,42.805,6.029,0.055,-0.031,0.008,102.0,102.0,101.0,13.4,1505.2,328.6,-0.7,1.8,2470.627,13.28,0.063,119.4
2021-05-04T03:34:03,42.805,6.029,0.048,-0.019,0.044,102.0,103.0,101.0,13.4,1505.2,326.7,-0.8,1.8,2470.631,13.28,0.051,111.6
2021-05-04T03:37:03,42.805,6.029,0.038,-0.021,0.02,101.0,103.0,101.0,13.3,1505.2,325.9,-0.8,1.8,2470.623,13.28,0.043,118.9
2021-05-04T03:40:03,42.805,6.029,0.041,-0.03,0.026,102.0,103.0,100.0,13.4,1505.2,329.1,-0.7,1.8,2470.646,13.28,0.05,126.2
2021-05-04T03:43:03,42.805,6.029,0.049,-0.036,0.012,102.0,103.0,100.0,13.4,1505.2,327.3,-0.7,1.8,2470.631,13.28,0.06,126.3
2021-05-04T03:46:03,42.805,6.029,0.058,-0.049,-0.003,100.0,102.0,100.0,13.4,1505.2,327.8,-0.7,1.9,2470.647,13.28,0.075,130.2
2021-05-04T03:49:03,42.805,6.029,0.046,-0.031,0.021,101.0,101.0,101.0,13.4,1505.2,324.6,-0.7,1.9,2470.642,13.28,0.055,124.0
2021-05-04T03:52:03,42.805,6.029,0.027,-0.046,0.024,102.0,102.0,102.0,13.3,1505.2,324.0,-0.7,1.8,2470.632,13.28,0.053,149.6
2021-05-04T03:55:03,42.805,6.029,0.045,-0.025,0.024,101.0,104.0,100.0,13.3,1505.2,325.9,-0.7,1.8,2470.615,13.28,0.051,119.1
2021-05-04T03:58:03,42.805,6.029,0.046,-0.039,-0.013,100.0,104.0,100.0,13.3,1505.2,328.1,-0.7,1.8,2470.655,13.28,0.06,130.3
2021-05-04T04:04:03,42.805,6.029,0.041,-0.038,0.002,101.0,102.0,100.0,13.3,1505.2,329.0,-0.8,1.8,2470.655,13.28,0.055,132.8
2021-05-04T04:07:03,42.805,6.029,0.048,-0.046,0.037,102.0,104.0,100.0,13.4,1505.2,327.6,-0.8,1.9,2470.697,13.28,0.066,133.8
2021-05-04T04:10:03,42.805,6.029,0.059,-0.012,0.035,101.0,103.0,101.0,13.4,1505.2,327.9,-0.8,1.8,2470.655,13.28,0.06,101.5
2021-05-04T04:13:03,42.805,6.029,0.046,-0.036,0.006,102.0,102.0,100.0,13.3,1505.2,325.4,-0.7,1.8,2470.635,13.28,0.058,128.0
2021-05-04T04:16:03,42.805,6.029,0.053,-0.038,0.023,100.0,101.0,101.0,13.3,1505.2,328.7,-0.7,1.8,2470.667,13.28,0.065,125.6
2021-05-04T04:19:03,42.805,6.029,0.061,-0.045,0.017,101.0,102.0,101.0,13.4,1505.2,327.7,-0.8,1.8,2470.648,13.28,0.075,126.4
2021-05-04T04:22:03,42.805,6.029,0.047,-0.075,-0.027,102.0,102.0,99.0,13.4,1505.2,326.3,-0.8,1.9,2470.64,13.28,0.088,147.9
2021-05-04T04:25:03,42.805,6.029,0.083,-0.044,0.061,102.0,101.0,101.0,13.4,1505.2,328.9,-0.8,1.8,2470.653,13.28,0.093,117.9
2021-05-04T04:28:03,42.805,6.029,0.048,-0.016,0.026,101.0,102.0,100.0,13.4,1505.2,324.0,-0.8,1.9,2470.623,13.28,0.05,108.4
2021-05-04T04:31:03,42.805,6.029,0.074,-0.035,0.007,101.0,102.0,101.0,13.4,1505.2,327.8,-0.7,1.8,2470.619,13.28,0.081,115.3
2021-05-04T04:34:03,42.805,6.029,0.04,-0.045,-0.003,102.0,101.0,100.0,13.4,1505.2,325.0,-0.8,1.8,2470.632,13.28,0.06,138.4
2021-05-04T04:37:03,42.805,6.029,0.06,-0.02,0.056,101.0,101.0,100.0,13.4,1505.2,325.3,-0.8,1.8,2470.646,13.28,0.063,108.4
2021-05-04T04:40:03,42.805,6.029,0.048,-0.054,-0.013,101.0,102.0,100.0,13.4,1505.2,327.5,-0.8,1.8,2470.624,13.28,0.072,138.4
2021-05-04T04:43:03,42.805,6.029,0.054,-0.041,0.036,101.0,102.0,100.0,13.4,1505.2,325.9,-0.7,1.8,2470.634,13.28,0.067,127.2
2021-05-04T04:46:03,42.805,6.029,0.041,-0.046,-0.001,100.0,102.0,101.0,13.4,1505.2,329.3,-0.7,1.8,2470.637,13.28,0.061,138.3
2021-05-04T04:49:03,42.805,6.029,0.058,-0.04,0.021,101.0,103.0,99.0,13.4,1505.2,328.5,-0.8,1.8,2470.625,13.28,0.07,124.6
2021-05-04T04:52:03,42.805,6.029,0.034,-0.037,-0.001,100.0,103.0,99.0,13.4,1505.2,324.6,-0.8,1.8,2470.654,13.28,0.05,137.4
2021-05-04T04:55:03,42.805,6.029,0.05,-0.028,0.014,102.0,101.0,102.0,13.3,1505.2,325.4,-0.7,1.9,2470.656,13.28,0.057,119.3
2021-05-04T04:58:03,42.805,6.029,0.077,-0.05,-0.002,101.0,102.0,100.0,13.3,1505.2,325.7,-0.8,1.8,2470.636,13.28,0.091,123.0
2021-05-04T05:04:03,42.805,6.029,0.045,-0.041,0.015,99.0,101.0,101.0,13.4,1505.2,325.9,-0.8,1.9,2470.683,13.28,0.06,132.3
2021-05-04T05:07:03,42.805,6.029,0.049,-0.032,0.022,101.0,102.0,101.0,13.4,1505.2,326.0,-0.7,1.8,2470.65,13.28,0.058,123.2
2021-05-04T05:10:03,42.805,6.029,0.028,-0.014,-0.009,101.0,101.0,100.0,13.4,1505.2,324.6,-0.8,1.8,2470.64,13.28,0.031,116.6
2021-05-04T05:13:03,42.805,6.029,0.057,-0.045,-0.003,101.0,102.0,99.0,13.4,1505.2,324.8,-0.7,1.8,2470.598,13.28,0.072,128.3
2021-05-04T05:16:03,42.805,6.029,0.032,-0.027,0.027,101.0,102.0,101.0,13.4,1505.2,325.5,-0.8,1.8,2470.602,13.28,0.041,130.2
2021-05-04T05:19:03,42.805,6.029,0.051,-0.037,0.01,101.0,102.0,99.0,13.4,1505.2,325.0,-0.8,1.8,2470.618,13.28,0.063,126.0
2021-05-04T05:22:03,42.805,6.029,0.045,-0.033,0.012,102.0,101.0,101.0,13.3,1505.2,325.5,-0.8,1.9,2470.614,13.28,0.055,126.3
2021-05-04T05:25:03,42.805,6.029,0.033,-0.036,0.013,102.0,100.0,99.0,13.3,1505.2,324.7,-0.8,1.8,2470.603,13.28,0.048,137.5
2021-05-04T05:28:03,42.805,6.029,0.046,-0.033,0.037,102.0,101.0,100.0,13.4,1505.2,325.1,-0.8,1.9,2470.635,13.28,0.056,125.7
2021-05-04T05:31:03,42.805,6.029,0.045,-0.047,0.011,101.0,103.0,99.0,13.3,1505.2,324.8,-0.8,1.8,2470.634,13.28,0.065,136.2
2021-05-04T05:34:03,42.805,6.029,0.069,-0.02,0.044,102.0,100.0,100.0,13.4,1505.2,324.9,-0.8,1.8,2470.621,13.28,0.071,106.2
2021-05-04T05:37:03,42.805,6.029,0.053,-0.038,0.008,99.0,102.0,100.0,13.4,1505.2,327.6,-0.7,1.8,2470.648,13.28,0.065,125.6
2021-05-04T05:40:03,42.805,6.029,0.057,-0.039,0.029,102.0,101.0,98.0,13.4,1505.2,327.0,-0.8,1.9,2470.621,13.28,0.069,124.4
2021-05-04T05:43:03,42.805,6.029,0.036,-0.052,0.011,100.0,101.0,101.0,13.4,1505.2,329.3,-0.7,1.9,2470.632,13.28,0.063,145.3
2021-05-04T05:46:03,42.805,6.029,0.055,-0.041,0.012,102.0,102.0,99.0,13.4,1505.2,324.4,-0.7,1.8,2470.638,13.28,0.068,126.7
2021-05-04T05:49:03,42.805,6.029,0.065,-0.025,0.043,101.0,102.0,100.0,13.4,1505.2,326.2,-0.7,1.8,2470.597,13.28,0.069,111.0
2021-05-04T05:52:03,42.805,6.029,0.053,-0.051,0.01,100.0,102.0,101.0,13.3,1505.2,329.3,-0.7,1.8,2470.618,13.28,0.073,133.9
2021-05-04T05:55:03,42.805,6.029,0.035,-0.042,0.007,100.0,101.0,100.0,13.4,1505.2,329.4,-0.8,1.8,2470.633,13.28,0.054,140.2
2021-05-04T05:58:03,42.805,6.029,0.048,-0.038,0.003,102.0,101.0,100.0,13.4,1505.2,327.4,-0.8,1.8,2470.63,13.28,0.061,128.4
2021-05-04T06:04:03,42.805,6.029,0.041,-0.045,-0.051,102.0,102.0,100.0,13.4,1505.2,324.8,-0.8,1.8,2470.623,13.28,0.06,137.7
2021-05-04T06:07:03,42.805,6.029,0.065,-0.033,-0.006,102.0,102.0,100.0,13.4,1505.2,325.2,-0.7,1.8,2470.62,13.28,0.072,116.9
2021-05-04T06:10:03,42.805,6.029,0.038,-0.042,-0.004,103.0,102.0,100.0,13.4,1505.2,325.6,-0.8,1.8,2470.633,13.28,0.056,137.9
2021-05-04T06:13:03,42.805,6.029,0.07,-0.029,0.066,103.0,100.0,100.0,13.4,1505.2,326.8,-0.8,1.8,2470.621,13.28,0.075,112.5
2021-05-04T06:16:03,42.805,6.029,0.048,-0.053,0.019,102.0,100.0,100.0,13.3,1505.2,328.8,-0.8,1.8,2470.576,13.28,0.071,137.8
2021-05-04T06:19:03,42.805,6.029,0.053,-0.041,0.013,102.0,100.0,99.0,13.3,1505.2,324.5,-0.8,1.9,2470.589,13.28,0.067,127.7
2021-05-04T06:22:03,42.805,6.029,0.05,-0.049,0.015,103.0,101.0,99.0,13.4,1505.2,326.3,-0.7,1.8,2470.615,13.28,0.07,134.4
2021-05-04T06:25:03,42.805,6.029,0.045,-0.031,0.039,102.0,102.0,99.0,13.4,1505.2,328.0,-0.8,1.8,2470.641,13.28,0.054,124.6
2021-05-04T06:28:03,42.805,6.029,0.034,-0.044,0.011,101.0,101.0,100.0,13.4,1505.2,324.6,-0.7,1.8,2470.594,13.28,0.055,142.3
2021-05-04T06:31:03,42.805,6.029,0.036,-0.039,0.005,101.0,103.0,100.0,13.4,1505.2,327.0,-0.8,1.9,2470.614,13.28,0.053,137.3
2021-05-04T06:34:03,42.805,6.029,0.033,-0.031,0.003,102.0,103.0,100.0,13.4,1505.2,327.8,-0.8,1.8,2470.578,13.28,0.045,133.2
2021-05-04T06:37:03,42.805,6.029,0.054,-0.059,-0.011,100.0,101.0,101.0,13.4,1505.2,329.1,-0.7,1.8,2470.6,13.28,0.079,137.5
2021-05-04T06:40:03,42.805,6.029,0.039,-0.042,0.034,101.0,102.0,99.0,13.4,1505.2,324.7,-0.8,1.8,2470.57,13.28,0.057,137.1
2021-05-04T06:43:03,42.805,6.029,0.017,-0.04,0.025,100.0,102.0,100.0,13.4,1505.2,328.6,-0.8,1.8,2470.61,13.28,0.043,157.0
2021-05-04T06:46:03,42.805,6.029,0.051,-0.028,0.03,101.0,100.0,101.0,13.3,1505.2,328.1,-0.8,1.8,2470.572,13.28,0.058,118.8
2021-05-04T06:49:03,42.805,6.029,0.052,-0.034,0.005,100.0,101.0,101.0,13.3,1505.2,326.9,-0.8,1.8,2470.598,13.28,0.062,123.2
2021-05-04T06:52:03,42.805,6.029,0.05,-0.032,0.022,101.0,103.0,100.0,13.4,1505.2,329.0,-0.8,1.8,2470.566,13.28,0.059,122.6
2021-05-04T06:55:03,42.805,6.029,0.026,-0.045,-0.021,101.0,101.0,100.0,13.4,1505.2,326.6,-0.7,1.8,2470.57,13.28,0.051,150.0
2021-05-04T06:58:03,42.805,6.029,0.045,-0.039,0.028,101.0,101.0,100.0,13.3,1505.2,325.1,-0.8,1.8,2470.567,13.28,0.059,130.9
2021-05-04T07:04:03,42.805,6.029,0.047,-0.036,0.004,101.0,101.0,99.0,13.4,1505.2,325.5,-0.8,1.8,2470.622,13.28,0.059,127.5
2021-05-04T07:07:03,42.805,6.029,0.059,-0.047,-0.003,100.0,102.0,100.0,13.4,1505.2,328.5,-0.7,1.8,2470.579,13.28,0.075,128.5
2021-05-04T07:10:03,42.805,6.029,0.056,-0.035,0.049,101.0,101.0,100.0,13.3,1505.2,325.4,-0.7,1.8,2470.589,13.28,0.066,122.0
2021-05-04T07:13:03,42.805,6.029,0.049,-0.037,-0.001,101.0,101.0,100.0,13.3,1505.2,327.2,-0.7,1.8,2470.571,13.28,0.061,127.1
2021-05-04T07:16:03,42.805,6.029,0.084,-0.047,0.016,101.0,100.0,100.0,13.4,1505.2,327.9,-0.7,1.9,2470.544,13.28,0.096,119.2
2021-05-04T07:19:03,42.805,6.029,0.091,-0.03,0.054,101.0,102.0,100.0,13.4,1505.2,324.1,-0.8,1.8,2470.596,13.28,0.095,108.2
2021-05-04T07:22:03,42.805,6.029,0.068,-0.057,-0.013,100.0,103.0,99.0,13.4,1505.2,325.5,-0.8,1.8,2470.602,13.28,0.088,130.0
2021-05-04T07:25:03,42.805,6.029,0.048,-0.034,0.041,101.0,101.0,100.0,13.4,1505.2,328.7,-0.8,1.8,2470.599,13.28,0.058,125.3
2021-05-04T07:28:03,42.805,6.029,0.04,-0.047,-0.006,102.0,101.0,101.0,13.4,1505.2,324.0,-0.7,1.8,2470.574,13.28,0.061,139.6
2021-05-04T07:31:03,42.805,6.029,0.048,-0.052,0.015,101.0,100.0,101.0,13.4,1505.2,327.8,-0.8,1.8,2470.564,13.28,0.07,137.3
2021-05-04T07:34:03,42.805,6.029,0.058,-0.057,0.005,102.0,101.0,100.0,13.4,1505.2,327.3,-0.7,1.8,2470.537,13.28,0.081,134.5
2021-05-04T07:37:03,42.805,6.029,0.046,-0.04,0.018,100.0,101.0,100.0,13.4,1505.2,329.2,-0.8,1.8,2470.544,13.28,0.06,131.0
2021-05-04T07:40:03,42.805,6.029,0.048,-0.047,0.002,102.0,102.0,100.0,13.4,1505.2,324.7,-0.8,1.8,2470.551,13.28,0.067,134.4
2021-05-04T07:43:03,42.805,6.029,0.042,-0.023,-0.004,101.0,101.0,101.0,13.3,1505.2,325.3,-0.8,1.8,2470.549,13.28,0.047,118.7
2021-05-04T07:46:03,42.805,6.029,0.063,-0.031,-0.018,99.0,101.0,101.0,13.3,1505.2,328.0,-0.8,1.8,2470.581,13.28,0.07,116.2
2021-05-04T07:49:03,42.805,6.029,0.041,-0.037,0.011,101.0,101.0,101.0,13.4,1505.2,326.0,-0.7,1.9,2470.565,13.28,0.055,132.1
2021-05-04T07:52:03,42.805,6.029,0.042,-0.031,-0.006,101.0,101.0,101.0,13.3,1505.2,327.6,-0.8,1.9,2470.572,13.28,0.052,126.4
2021-05-04T07:55:03,42.805,6.029,0.048,-0.039,0.003,101.0,101.0,100.0,13.4,1505.2,326.2,-0.8,1.8,2470.584,13.28,0.061,129.1
2021-05-04T07:58:03,42.805,6.029,0.042,-0.036,0.015,99.0,101.0,101.0,13.4,1505.2,326.7,-0.8,1.8,2470.557,13.28,0.055,130.6
2021-05-04T08:04:03,42.805,6.029,0.039,-0.022,0.012,101.0,103.0,100.0,13.4,1505.2,329.1,-0.8,1.9,2470.587,13.28,0.044,119.4
2021-05-04T08:07:03,42.805,6.029,0.029,-0.013,0.048,102.0,102.0,101.0,13.4,1505.2,325.9,-0.7,1.8,2470.563,13.28,0.031,114.1
2021-05-04T08:10:03,42.805,6.029,0.047,-0.038,0.026,102.0,102.0,101.0,13.3,1505.2,328.4,-0.7,1.8,2470.536,13.28,0.06,129.0
2021-05-04T08:13:03,42.805,6.029,0.042,-0.032,0.002,103.0,103.0,100.0,13.4,1505.2,324.8,-0.8,1.8,2470.533,13.28,0.052,127.3
2021-05-04T08:16:03,42.805,6.029,0.047,-0.039,0.013,103.0,101.0,100.0,13.4,1505.2,326.9,-0.7,1.9,2470.528,13.28,0.061,129.7
2021-05-04T08:19:03,42.805,6.029,0.046,-0.012,0.032,100.0,102.0,101.0,13.4,1505.2,328.2,-0.8,1.9,2470.537,13.28,0.047,104.6
2021-05-04T08:22:03,42.805,6.029,0.036,-0.045,-0.014,101.0,100.0,100.0,13.4,1505.2,328.0,-0.7,1.8,2470.584,13.28,0.057,141.3
2021-05-04T08:25:03,42.805,6.029,0.035,-0.036,0.034,101.0,102.0,100.0,13.4,1505.2,323.7,-0.8,1.8,2470.543,13.28,0.05,135.8
2021-05-04T08:28:03,42.805,6.029,0.044,-0.026,0.005,101.0,101.0,101.0,13.4,1505.2,323.8,-0.7,1.8,2470.538,13.28,0.051,120.6
2021-05-04T08:31:03,42.805,6.029,0.05,-0.034,-0.007,101.0,101.0,100.0,13.3,1505.2,324.6,-0.7,1.8,2470.571,13.28,0.06,124.2
2021-05-04T08:34:03,42.805,6.029,0.038,-0.034,0.015,101.0,101.0,101.0,13.4,1505.2,327.0,-0.8,1.8,2470.537,13.28,0.05,131.8
2021-05-04T08:37:03,42.805,6.029,0.058,-0.037,0.019,101.0,102.0,100.0,13.4,1505.2,327.8,-0.8,1.8,2470.539,13.28,0.068,122.5
2021-05-04T08:40:03,42.805,6.029,0.061,-0.044,0.013,101.0,101.0,100.0,13.4,1505.2,325.3,-0.8,1.8,2470.579,13.28,0.075,125.8
2021-05-04T08:43:03,42.805,6.029,0.058,-0.044,0.025,101.0,102.0,100.0,13.4,1505.2,328.5,-0.7,1.8,2470.551,13.28,0.072,127.2
2021-05-04T08:46:03,42.805,6.029,0.017,-0.032,0.012,102.0,101.0,101.0,13.4,1505.2,325.5,-0.8,1.8,2470.564,13.28,0.036,152.0
2021-05-04T08:49:03,42.805,6.029,0.038,-0.027,0.029,101.0,101.0,101.0,13.3,1505.2,326.8,-0.7,1.8,2470.547,13.28,0.046,125.4
2021-05-04T08:52:03,42.805,6.029,0.052,-0.052,0.032,101.0,101.0,101.0,13.4,1505.2,327.2,-0.7,1.8,2470.526,13.28,0.073,135.0
2021-05-04T08:55:03,42.805,6.029,0.057,-0.034,0.027,101.0,101.0,101.0,13.3,1505.2,324.6,-0.8,1.8,2470.498,13.28,0.066,120.8
2021-05-04T08:58:03,42.805,6.029,0.056,-0.04,0.017,102.0,101.0,101.0,13.4,1505.2,326.5,-0.8,1.8,2470.563,13.28,0.068,125.5
2021-05-04T09:04:03,42.805,6.029,0.069,-0.028,0.023,101.0,101.0,100.0,13.4,1505.2,323.8,-0.7,1.8,2470.577,13.28,0.074,112.1
2021-05-04T09:07:03,42.805,6.029,0.051,-0.067,0.022,100.0,101.0,100.0,13.4,1505.2,328.1,-0.8,1.8,2470.592,13.28,0.084,142.7
2021-05-04T09:10:03,42.805,6.029,0.048,-0.037,0.02,101.0,101.0,100.0,13.4,1505.2,327.1,-0.7,1.8,2470.549,13.28,0.06,127.6
2021-05-04T09:13:03,42.805,6.029,0.049,-0.021,0.015,101.0,101.0,101.0,13.4,1505.2,327.9,-0.8,1.8,2470.527,13.28,0.053,113.2
2021-05-04T09:16:03,42.805,6.029,0.049,-0.032,0.039,101.0,100.0,100.0,13.4,1505.2,324.1,-0.7,1.9,2470.545,13.28,0.058,123.2
2021-05-04T09:19:03,42.805,6.029,0.052,-0.037,0.003,101.0,101.0,100.0,13.3,1505.2,326.1,-0.8,1.8,2470.55,13.28,0.063,125.4
2021-05-04T09:22:03,42.805,6.029,0.038,-0.035,0.01,103.0,100.0,100.0,13.4,1505.2,325.3,-0.7,1.8,2470.54,13.28,0.051,132.6
2021-05-04T09:25:03,42.805,6.029,0.053,-0.044,0.008,101.0,101.0,100.0,13.4,1505.2,326.5,-0.7,1.9,2470.528,13.28,0.068,129.7
2021-05-04T09:28:03,42.805,6.029,0.044,-0.05,0.005,100.0,103.0,99.0,13.3,1505.2,327.7,-0.8,1.8,2470.557,13.28,0.066,138.7
2021-05-04T09:31:03,42.805,6.029,0.056,-0.054,-0.001,102.0,99.0,100.0,13.3,1505.2,327.4,-0.7,1.8,2470.55,13.28,0.077,134.0
2021-05-04T09:34:03,42.805,6.029,0.046,-0.028,0.023,100.0,101.0,101.0,13.4,1505.2,327.8,-0.7,1.8,2470.559,13.28,0.053,121.3
2021-05-04T09:37:03,42.805,6.029,0.06,-0.052,0.009,102.0,98.0,101.0,13.4,1505.2,326.2,-0.7,1.8,2470.522,13.28,0.079,130.9
2021-05-04T09:40:03,42.805,6.029,0.041,-0.049,0.005,100.0,102.0,100.0,13.4,1505.2,327.3,-0.8,1.8,2470.576,13.28,0.063,140.1
2021-05-04T09:43:03,42.805,6.029,0.037,-0.047,0.015,101.0,101.0,100.0,13.4,1505.2,329.6,-0.7,1.8,2470.538,13.28,0.059,141.8
2021-05-04T09:46:03,42.805,6.029,0.034,-0.05,0.008,101.0,101.0,100.0,13.3,1505.2,328.7,-0.7,1.8,2470.556,13.28,0.06,145.8
2021-05-04T09:49:03,42.805,6.029,0.026,-0.031,0.005,102.0,98.0,100.0,13.4,1505.2,328.6,-0.7,1.8,2470.523,13.28,0.04,140.0
2021-05-04T09:52:03,42.805,6.029,0.019,-0.056,0.012,101.0,101.0,100.0,13.4,1505.2,329.0,-0.7,1.9,2470.578,13.28,0.059,161.3
2021-05-04T09:55:03,42.805,6.029,0.027,-0.042,0.019,103.0,100.0,100.0,13.4,1505.2,328.9,-0.7,1.8,2470.523,13.28,0.049,147.3
2021-05-04T09:58:03,42.805,6.029,0.008,-0.031,0.011,101.0,100.0,100.0,13.4,1505.2,328.9,-0.8,1.8,2470.529,13.28,0.032,165.5